Weather History for KNQA - July, 2013

Change the Weather History Date:

Tuesday, July 23, 2013

  Actual Average Record
Temperature  
Mean Temperature 80 °F -  
Max Temperature 91 °F 90 °F 102 °F (2005)
Min Temperature 69 °F 72 °F 57 °F (2006)
Cooling Degree Days 15    
Growing Degree Days 30 (Base 50)    
Moisture  
Dew Point 75 °F    
Average Humidity 87    
Maximum Humidity 100    
Minimum Humidity 55    
Precipitation  
Precipitation 0.00 in - - ()
Sea Level Pressure  
Sea Level Pressure 29.89 in    
Wind  
Wind Speed 2 mph (WSW)    
Max Wind Speed 12 mph    
Max Gust Speed -    
Visibility 10 miles    
Events Rain    
Averages and records for this station are not official NWS values.
T = Trace of Precipitation, MM = Missing Value Source: NWS Daily Summary

Daily Weather History Graph

Daily Weather History Graph

Search for Another Location

Airport or City:

Trip Planner

Search our weather history database for the weather conditions in past years. The results will help you decide how hot, cold, wet, or windy it might be!

Date:

Astronomy

Jul. 23, 2013 Rise Set
Actual Time 6:01 AM CDT 8:09 PM CDT
Civil Twilight 5:33 AM CDT 8:38 PM CDT
Nautical Twilight 4:58 AM CDT 9:13 PM CDT
Astronomical Twilight 4:20 AM CDT 9:50 PM CDT
Moon 8:44 PM CDT (7/23) 7:05 AM CDT (7/23)
Length of Visible Light 15h 05m
Length of Day
14h 08m
Full, 99% of the Moon is Illuminated
Jul 23
Full
Jul 29
Last Quarter
Aug 6
New
Aug 14
First Quarter
Aug 20
Full

Hourly Weather History & Observations

Time (CDT) Temp. Heat Index Dew Point Humidity Pressure Visibility Wind Dir Wind Speed Gust Speed Precip Events Conditions
12:55 AM 75.2 °F - 73.4 °F 94% 29.93 in 10.0 mi Calm Calm - N/A   Mostly Cloudy
1:55 AM 75.2 °F - 73.4 °F 94% 29.92 in 10.0 mi Calm Calm - N/A   Mostly Cloudy
2:55 AM 75.2 °F - 73.4 °F 94% 29.90 in 10.0 mi Calm Calm - N/A   Clear
3:15 AM 75.2 °F - 73.4 °F 94% 29.90 in 10.0 mi Calm Calm - N/A   Clear
3:35 AM 75.2 °F - 73.4 °F 94% 29.90 in 10.0 mi Calm Calm - N/A   Clear
3:55 AM 75.2 °F - 73.4 °F 94% 29.89 in 10.0 mi Calm Calm - N/A   Clear
4:15 AM 75.2 °F - 73.4 °F 94% 29.89 in 10.0 mi Calm Calm - N/A   Clear
4:35 AM 75.2 °F - 73.4 °F 94% 29.88 in 10.0 mi Calm Calm - N/A   Clear
4:55 AM 77.0 °F - 73.4 °F 89% 29.87 in 10.0 mi Calm Calm - N/A   Clear
5:15 AM 77.0 °F - 73.4 °F 89% 29.86 in 10.0 mi Calm Calm - N/A   Clear
5:35 AM 77.0 °F - 73.4 °F 89% 29.87 in 10.0 mi Calm Calm - N/A   Scattered Clouds
5:55 AM 77.0 °F - 73.4 °F 89% 29.88 in 10.0 mi West 5.8 mph - N/A   Scattered Clouds
6:55 AM 78.8 °F - 75.2 °F 89% 29.90 in 10.0 mi SW 11.5 mph - N/A   Mostly Cloudy
7:55 AM 75.2 °F - 71.6 °F 89% 29.95 in 9.0 mi West 6.9 mph - N/A Rain Light Rain
8:55 AM 73.4 °F - 71.6 °F 94% 30.00 in 6.0 mi WNW 3.5 mph - N/A Rain Light Rain
9:55 AM 69.8 °F - 69.8 °F 100% 29.98 in 5.0 mi NNE 3.5 mph - N/A Rain Light Rain
10:55 AM 73.4 °F - 71.6 °F 94% 29.91 in 10.0 mi Calm Calm - N/A   Overcast
11:55 AM 78.8 °F - 73.4 °F 83% 29.91 in 10.0 mi Variable 4.6 mph - N/A   Mostly Cloudy
12:55 PM 80.6 °F 85.4 °F 73.4 °F 79% 29.88 in 10.0 mi SW 11.5 mph - N/A   Mostly Cloudy
1:55 PM 87.8 °F 95.6 °F 73.4 °F 62% 29.87 in 10.0 mi WSW 6.9 mph - N/A   Scattered Clouds
3:55 PM 91.4 °F 100.1 °F 73.4 °F 55% 29.83 in 10.0 mi West 5.8 mph - N/A   Scattered Clouds
4:55 PM 91.4 °F 107.2 °F 78.8 °F 66% 29.83 in 10.0 mi West 5.8 mph - N/A   Scattered Clouds
5:55 PM 87.8 °F 104.9 °F 80.6 °F 79% 29.84 in 10.0 mi SSW 4.6 mph - N/A   Mostly Cloudy
6:55 PM 86.0 °F 99.3 °F 78.8 °F 79% 29.86 in 10.0 mi SW 8.1 mph - N/A   Overcast
7:55 PM 84.2 °F 96.1 °F 78.8 °F 84% 29.86 in 10.0 mi WSW 5.8 mph - N/A   Overcast
8:55 PM 82.4 °F 92.4 °F 78.8 °F 89% 29.87 in 10.0 mi SW 5.8 mph - N/A   Overcast
9:55 PM 82.4 °F 92.4 °F 78.8 °F 89% 29.86 in 10.0 mi WSW 3.5 mph - N/A   Overcast
10:55 PM 80.6 °F 87.1 °F 77.0 °F 89% 29.88 in 10.0 mi WSW 4.6 mph - N/A   Overcast
11:55 PM 80.6 °F 87.1 °F 77.0 °F 89% 29.87 in 10.0 mi Calm Calm - N/A   Clear